Year,Month,Day,Hour,Minute,Value (Times are PST for temperature in C)
2019,07,09,00,00,14.40
2019,07,09,00,01,14.40
2019,07,09,00,02,14.40
2019,07,09,00,03,14.30
2019,07,09,00,04,14.30
2019,07,09,00,05,14.30
2019,07,09,00,06,14.30
2019,07,09,00,07,14.30
2019,07,09,00,08,14.30
2019,07,09,00,09,14.30
2019,07,09,00,10,14.20
2019,07,09,00,11,14.20
2019,07,09,00,12,14.20
2019,07,09,00,13,14.20
2019,07,09,00,14,14.20
2019,07,09,00,15,14.20
2019,07,09,00,16,14.20
2019,07,09,00,17,14.10
2019,07,09,00,18,14.10
2019,07,09,00,19,14.10
2019,07,09,00,20,14.10
2019,07,09,00,21,14.10
2019,07,09,00,22,14.10
2019,07,09,00,23,14.10
2019,07,09,00,24,14.10
2019,07,09,00,25,14.10
2019,07,09,00,26,14.10
2019,07,09,00,27,14.10
2019,07,09,00,28,14.00
2019,07,09,00,29,14.00
2019,07,09,00,30,14.00
2019,07,09,00,31,13.90
2019,07,09,00,32,13.90
2019,07,09,00,33,13.90
2019,07,09,00,34,13.90
2019,07,09,00,35,13.90
2019,07,09,00,36,13.90
2019,07,09,00,37,13.90
2019,07,09,00,38,13.80
2019,07,09,00,39,13.80
2019,07,09,00,40,13.80
2019,07,09,00,41,13.80
2019,07,09,00,42,13.80
2019,07,09,00,43,13.80
2019,07,09,00,44,13.80
2019,07,09,00,45,13.80
2019,07,09,00,46,13.80
2019,07,09,00,47,13.80
2019,07,09,00,48,13.80
2019,07,09,00,49,13.70
2019,07,09,00,50,13.70
2019,07,09,00,51,13.70
2019,07,09,00,52,13.70
2019,07,09,00,53,13.70
2019,07,09,00,54,13.60
2019,07,09,00,55,13.60
2019,07,09,00,56,13.60
2019,07,09,00,57,13.60
2019,07,09,00,58,13.50
2019,07,09,00,59,13.50
2019,07,09,01,00,13.40
2019,07,09,01,01,13.40
2019,07,09,01,02,13.40
2019,07,09,01,03,13.30
2019,07,09,01,04,13.30
2019,07,09,01,05,13.30
2019,07,09,01,06,13.20
2019,07,09,01,07,13.20
2019,07,09,01,08,13.20
2019,07,09,01,09,13.20
2019,07,09,01,10,13.20
2019,07,09,01,11,13.10
2019,07,09,01,12,13.10
2019,07,09,01,13,13.10
2019,07,09,01,14,13.10
2019,07,09,01,15,13.00
2019,07,09,01,16,13.00
2019,07,09,01,17,13.00
2019,07,09,01,18,12.90
2019,07,09,01,19,12.90
2019,07,09,01,20,12.90
2019,07,09,01,21,12.90
2019,07,09,01,22,12.90
2019,07,09,01,23,12.80
2019,07,09,01,24,12.80
2019,07,09,01,25,12.80
2019,07,09,01,26,12.80
2019,07,09,01,27,12.80
2019,07,09,01,28,12.80
2019,07,09,01,29,12.80
2019,07,09,01,30,12.80
2019,07,09,01,31,12.80
2019,07,09,01,32,12.70
2019,07,09,01,33,12.80
2019,07,09,01,34,12.80
2019,07,09,01,35,12.70
2019,07,09,01,36,12.70
2019,07,09,01,37,12.70
2019,07,09,01,38,12.70
2019,07,09,01,39,12.70
2019,07,09,01,40,12.70
2019,07,09,01,41,12.70
2019,07,09,01,42,12.70
2019,07,09,01,43,12.60
2019,07,09,01,44,12.70
2019,07,09,01,45,12.70
2019,07,09,01,46,12.70
2019,07,09,01,47,12.70
2019,07,09,01,48,12.60
2019,07,09,01,49,12.60
2019,07,09,01,50,12.60
2019,07,09,01,51,12.60
2019,07,09,01,52,12.60
2019,07,09,01,53,12.70
2019,07,09,01,54,12.70
2019,07,09,01,55,12.70
2019,07,09,01,56,12.70
2019,07,09,01,57,12.70
2019,07,09,01,58,12.70
2019,07,09,01,59,12.70
2019,07,09,02,00,12.70
2019,07,09,02,01,12.70
2019,07,09,02,02,12.70
2019,07,09,02,03,12.70
2019,07,09,02,04,12.60
2019,07,09,02,05,12.60
2019,07,09,02,06,12.60
2019,07,09,02,07,12.50
2019,07,09,02,08,12.50
2019,07,09,02,09,12.40
2019,07,09,02,10,12.40
2019,07,09,02,11,12.40
2019,07,09,02,12,12.30
2019,07,09,02,13,12.30
2019,07,09,02,14,12.30
2019,07,09,02,15,12.30
2019,07,09,02,16,12.30
2019,07,09,02,17,12.30
2019,07,09,02,18,12.30
2019,07,09,02,19,12.20
2019,07,09,02,20,12.20
2019,07,09,02,21,12.20
2019,07,09,02,22,12.20
2019,07,09,02,23,12.20
2019,07,09,02,24,12.20
2019,07,09,02,25,12.20
2019,07,09,02,26,12.20
2019,07,09,02,27,12.20
2019,07,09,02,28,12.30
2019,07,09,02,29,12.20
2019,07,09,02,30,12.20
2019,07,09,02,31,12.20
2019,07,09,02,32,12.20
2019,07,09,02,33,12.20
2019,07,09,02,34,12.20
2019,07,09,02,35,12.20
2019,07,09,02,36,12.20
2019,07,09,02,37,12.20
2019,07,09,02,38,12.20
2019,07,09,02,39,12.10
2019,07,09,02,40,12.10
2019,07,09,02,41,12.00
2019,07,09,02,42,12.00
2019,07,09,02,43,11.90
2019,07,09,02,44,11.90
2019,07,09,02,45,11.90
2019,07,09,02,46,11.90
2019,07,09,02,47,11.90
2019,07,09,02,48,11.90
2019,07,09,02,49,11.90
2019,07,09,02,50,11.90
2019,07,09,02,51,11.90
2019,07,09,02,52,11.90
2019,07,09,02,53,11.90
2019,07,09,02,54,11.90
2019,07,09,02,55,11.90
2019,07,09,02,56,11.90
2019,07,09,02,57,11.90
2019,07,09,02,58,11.90
2019,07,09,02,59,11.90
2019,07,09,03,00,11.90
2019,07,09,03,01,11.90
2019,07,09,03,02,11.90
2019,07,09,03,03,11.90
2019,07,09,03,04,11.90
2019,07,09,03,05,11.80
2019,07,09,03,06,11.80
2019,07,09,03,07,11.80
2019,07,09,03,08,11.80
2019,07,09,03,09,11.80
2019,07,09,03,10,11.70
2019,07,09,03,11,11.70
2019,07,09,03,12,11.70
2019,07,09,03,13,11.70
2019,07,09,03,14,11.70
2019,07,09,03,15,11.70
2019,07,09,03,16,11.70
2019,07,09,03,17,11.70
2019,07,09,03,18,11.70
2019,07,09,03,19,11.70
2019,07,09,03,20,11.70
2019,07,09,03,21,11.70
2019,07,09,03,22,11.70
2019,07,09,03,23,11.70
2019,07,09,03,24,11.70
2019,07,09,03,25,11.70
2019,07,09,03,26,11.70
2019,07,09,03,27,11.70
2019,07,09,03,28,11.70
2019,07,09,03,29,11.70
2019,07,09,03,30,11.70
2019,07,09,03,31,11.70
2019,07,09,03,32,11.70
2019,07,09,03,33,11.70
2019,07,09,03,34,11.70
2019,07,09,03,35,11.70
2019,07,09,03,36,11.70
2019,07,09,03,37,11.70
2019,07,09,03,38,11.70
2019,07,09,03,39,11.70
2019,07,09,03,40,11.70
2019,07,09,03,41,11.70
2019,07,09,03,42,11.70
2019,07,09,03,43,11.70
2019,07,09,03,44,11.70
2019,07,09,03,45,11.70
2019,07,09,03,46,11.70
2019,07,09,03,47,11.70
2019,07,09,03,48,11.70
2019,07,09,03,49,11.70
2019,07,09,03,50,11.70
2019,07,09,03,51,11.70
2019,07,09,03,52,11.60
2019,07,09,03,53,11.60
2019,07,09,03,54,11.60
2019,07,09,03,55,11.60
2019,07,09,03,56,11.60
2019,07,09,03,57,11.50
2019,07,09,03,58,11.50
2019,07,09,03,59,11.40
2019,07,09,04,00,11.40
2019,07,09,04,01,11.40
2019,07,09,04,02,11.40
2019,07,09,04,03,11.40
2019,07,09,04,04,11.40
2019,07,09,04,05,11.40
2019,07,09,04,06,11.50
2019,07,09,04,07,11.50
2019,07,09,04,08,11.50
2019,07,09,04,09,11.50
2019,07,09,04,10,11.50
2019,07,09,04,11,11.50
2019,07,09,04,12,11.50
2019,07,09,04,13,11.50
2019,07,09,04,14,11.50
2019,07,09,04,15,11.50
2019,07,09,04,16,11.50
2019,07,09,04,17,11.50
2019,07,09,04,18,11.60
2019,07,09,04,19,11.50
2019,07,09,04,20,11.50
2019,07,09,04,21,11.50
2019,07,09,04,22,11.50
2019,07,09,04,23,11.50
2019,07,09,04,24,11.60
2019,07,09,04,25,11.60
2019,07,09,04,26,11.60
2019,07,09,04,27,11.60
2019,07,09,04,28,11.60
2019,07,09,04,29,11.60
2019,07,09,04,30,11.60
2019,07,09,04,31,11.60
2019,07,09,04,32,11.60
2019,07,09,04,33,11.60
2019,07,09,04,34,11.60
2019,07,09,04,35,11.60
2019,07,09,04,36,11.70
2019,07,09,04,37,11.60
2019,07,09,04,38,11.60
2019,07,09,04,39,11.60
2019,07,09,04,40,11.60
2019,07,09,04,41,11.60
2019,07,09,04,42,11.60
2019,07,09,04,43,11.60
2019,07,09,04,44,11.60
2019,07,09,04,45,11.60
2019,07,09,04,46,11.60
2019,07,09,04,47,11.60
2019,07,09,04,48,11.60
2019,07,09,04,49,11.60
2019,07,09,04,50,11.60
2019,07,09,04,51,11.60
2019,07,09,04,52,11.60
2019,07,09,04,53,11.60
2019,07,09,04,54,11.70
2019,07,09,04,55,11.70
2019,07,09,04,56,11.70
2019,07,09,04,57,11.70
2019,07,09,04,58,11.70
2019,07,09,04,59,11.70
2019,07,09,05,00,11.70
2019,07,09,05,01,11.70
2019,07,09,05,02,11.70
2019,07,09,05,03,11.70
2019,07,09,05,04,11.70
2019,07,09,05,05,11.70
2019,07,09,05,06,11.80
2019,07,09,05,07,11.70
2019,07,09,05,08,11.70
2019,07,09,05,09,11.70
2019,07,09,05,10,11.70
2019,07,09,05,11,11.70
2019,07,09,05,12,11.70
2019,07,09,05,13,11.70
2019,07,09,05,14,11.70
2019,07,09,05,15,11.70
2019,07,09,05,16,11.70
2019,07,09,05,17,11.70
2019,07,09,05,18,11.70
2019,07,09,05,19,11.70
2019,07,09,05,20,11.70
2019,07,09,05,21,11.70
2019,07,09,05,22,11.70
2019,07,09,05,23,11.70
2019,07,09,05,24,11.70
2019,07,09,05,25,11.60
2019,07,09,05,26,11.60
2019,07,09,05,27,11.60
2019,07,09,05,28,11.60
2019,07,09,05,29,11.60
2019,07,09,05,30,11.60
2019,07,09,05,31,11.60
2019,07,09,05,32,11.60
2019,07,09,05,33,11.50
2019,07,09,05,34,11.50
2019,07,09,05,35,11.50
2019,07,09,05,36,11.60
2019,07,09,05,37,11.60
2019,07,09,05,38,11.60
2019,07,09,05,39,11.60
2019,07,09,05,40,11.60
2019,07,09,05,41,11.60
2019,07,09,05,42,11.60
2019,07,09,05,43,11.60
2019,07,09,05,44,11.60
2019,07,09,05,45,11.60
2019,07,09,05,46,11.50
2019,07,09,05,47,11.50
2019,07,09,05,48,11.50
2019,07,09,05,49,11.60
2019,07,09,05,50,11.60
2019,07,09,05,51,11.60
2019,07,09,05,52,11.60
2019,07,09,05,53,11.60
2019,07,09,05,54,11.60
2019,07,09,05,55,11.60
2019,07,09,05,56,11.60
2019,07,09,05,57,11.60
2019,07,09,05,58,11.60
2019,07,09,05,59,11.60
2019,07,09,06,00,11.50
2019,07,09,06,01,11.50
2019,07,09,06,02,11.50
2019,07,09,06,03,11.50
2019,07,09,06,04,11.50
2019,07,09,06,05,11.50
2019,07,09,06,06,11.60
2019,07,09,06,07,11.60
2019,07,09,06,08,11.60
2019,07,09,06,09,11.70
2019,07,09,06,10,11.70
2019,07,09,06,11,11.70
2019,07,09,06,12,11.70
2019,07,09,06,13,11.70
2019,07,09,06,14,11.80
2019,07,09,06,15,11.80
2019,07,09,06,16,11.80
2019,07,09,06,17,11.80
2019,07,09,06,18,11.80
2019,07,09,06,19,11.80
2019,07,09,06,20,11.80
2019,07,09,06,21,11.80
2019,07,09,06,22,11.80
2019,07,09,06,23,11.80
2019,07,09,06,24,11.90
2019,07,09,06,25,11.90
2019,07,09,06,26,11.90
2019,07,09,06,27,11.90
2019,07,09,06,28,11.90
2019,07,09,06,29,11.90
2019,07,09,06,30,12.00
2019,07,09,06,31,12.00
2019,07,09,06,32,12.00
2019,07,09,06,33,12.00
2019,07,09,06,34,12.00
2019,07,09,06,35,12.00
2019,07,09,06,36,12.10
2019,07,09,06,37,12.00
2019,07,09,06,38,12.10
2019,07,09,06,39,12.10
2019,07,09,06,40,12.10
2019,07,09,06,41,12.10
2019,07,09,06,42,12.10
2019,07,09,06,43,12.20
2019,07,09,06,44,12.20
2019,07,09,06,45,12.20
2019,07,09,06,46,12.20
2019,07,09,06,47,12.30
2019,07,09,06,48,12.30
2019,07,09,06,49,12.30
2019,07,09,06,50,12.30
2019,07,09,06,51,12.30
2019,07,09,06,52,12.30
2019,07,09,06,53,12.30
2019,07,09,06,54,12.40
2019,07,09,06,55,12.40
2019,07,09,06,56,12.40
2019,07,09,06,57,12.40
2019,07,09,06,58,12.40
2019,07,09,06,59,12.40
2019,07,09,07,00,12.40
2019,07,09,07,01,12.50
2019,07,09,07,02,12.50
2019,07,09,07,03,12.50
2019,07,09,07,04,12.50
2019,07,09,07,05,12.60
2019,07,09,07,06,12.60
2019,07,09,07,07,12.60
2019,07,09,07,08,12.60
2019,07,09,07,09,12.70
2019,07,09,07,10,12.70
2019,07,09,07,11,12.70
2019,07,09,07,12,12.80
2019,07,09,07,13,12.80
2019,07,09,07,14,12.80
2019,07,09,07,15,12.80
2019,07,09,07,16,12.80
2019,07,09,07,17,12.90
2019,07,09,07,18,12.90
2019,07,09,07,19,12.90
2019,07,09,07,20,13.00
2019,07,09,07,21,13.00
2019,07,09,07,22,13.00
2019,07,09,07,23,13.00
2019,07,09,07,24,13.10
2019,07,09,07,25,13.10
2019,07,09,07,26,13.10
2019,07,09,07,27,13.10
2019,07,09,07,28,13.10
2019,07,09,07,29,13.10
2019,07,09,07,30,13.10
2019,07,09,07,31,13.10
2019,07,09,07,32,13.20
2019,07,09,07,33,13.20
2019,07,09,07,34,13.20
2019,07,09,07,35,13.20
2019,07,09,07,36,13.30
2019,07,09,07,37,13.30
2019,07,09,07,38,13.40
2019,07,09,07,39,13.40
2019,07,09,07,40,13.40
2019,07,09,07,41,13.50
2019,07,09,07,42,13.50
2019,07,09,07,43,13.60
2019,07,09,07,44,13.60
2019,07,09,07,45,13.60
2019,07,09,07,46,13.70
2019,07,09,07,47,13.70
2019,07,09,07,48,13.70
2019,07,09,07,49,13.80
2019,07,09,07,50,13.80
2019,07,09,07,51,13.80
2019,07,09,07,52,13.90
2019,07,09,07,53,13.90
2019,07,09,07,54,14.00
2019,07,09,07,55,14.00
2019,07,09,07,56,14.10
2019,07,09,07,57,14.10
2019,07,09,07,58,14.10
2019,07,09,07,59,14.10
2019,07,09,08,00,14.20
2019,07,09,08,01,14.20
2019,07,09,08,02,14.20
2019,07,09,08,03,14.20
2019,07,09,08,04,14.30
2019,07,09,08,05,14.30
2019,07,09,08,06,14.30
2019,07,09,08,07,14.40
2019,07,09,08,08,14.40
2019,07,09,08,09,14.40
2019,07,09,08,10,14.50
2019,07,09,08,11,14.50
2019,07,09,08,12,14.60
2019,07,09,08,13,14.60
2019,07,09,08,14,14.70
2019,07,09,08,15,14.70
2019,07,09,08,16,14.70
2019,07,09,08,17,14.80
2019,07,09,08,18,14.80
2019,07,09,08,19,14.90
2019,07,09,08,20,14.90
2019,07,09,08,21,15.00
2019,07,09,08,22,15.00
2019,07,09,08,23,15.00
2019,07,09,08,24,15.10
2019,07,09,08,25,15.20
2019,07,09,08,26,15.20
2019,07,09,08,27,15.30
2019,07,09,08,28,15.30
2019,07,09,08,29,15.40
2019,07,09,08,30,15.40
2019,07,09,08,31,15.50
2019,07,09,08,32,15.50
2019,07,09,08,33,15.60
2019,07,09,08,34,15.70
2019,07,09,08,35,15.80
2019,07,09,08,36,15.90
2019,07,09,08,37,16.00
2019,07,09,08,38,16.00
2019,07,09,08,39,16.10
2019,07,09,08,40,16.10
2019,07,09,08,41,16.20
2019,07,09,08,42,16.20
2019,07,09,08,43,16.30
2019,07,09,08,44,16.30
2019,07,09,08,45,16.30
2019,07,09,08,46,16.40
2019,07,09,08,47,16.40
2019,07,09,08,48,16.50
2019,07,09,08,49,16.50
2019,07,09,08,50,16.60
2019,07,09,08,51,16.60
2019,07,09,08,52,16.70
2019,07,09,08,53,16.70
2019,07,09,08,54,16.80
2019,07,09,08,55,16.80
2019,07,09,08,56,16.80
2019,07,09,08,57,16.80
2019,07,09,08,58,16.80
2019,07,09,08,59,16.90
2019,07,09,09,00,16.90
2019,07,09,09,01,16.90
2019,07,09,09,02,16.90
2019,07,09,09,03,16.90
2019,07,09,09,04,16.90
2019,07,09,09,05,16.90
2019,07,09,09,06,16.90
2019,07,09,09,07,16.90
2019,07,09,09,08,16.90
2019,07,09,09,09,17.00
2019,07,09,09,10,17.00
2019,07,09,09,11,17.00
2019,07,09,09,12,17.00
2019,07,09,09,13,17.00
2019,07,09,09,14,17.00
2019,07,09,09,15,17.00
2019,07,09,09,16,17.10
2019,07,09,09,17,17.10
2019,07,09,09,18,17.10
2019,07,09,09,19,17.20
2019,07,09,09,20,17.20
2019,07,09,09,21,17.20
2019,07,09,09,22,17.20
2019,07,09,09,23,17.20
2019,07,09,09,24,17.20
2019,07,09,09,25,17.30
2019,07,09,09,26,17.30
2019,07,09,09,27,17.30
2019,07,09,09,28,17.40
2019,07,09,09,29,17.40
2019,07,09,09,30,17.50
2019,07,09,09,31,17.50
2019,07,09,09,32,17.60
2019,07,09,09,33,17.60
2019,07,09,09,34,17.70
2019,07,09,09,35,17.80
2019,07,09,09,36,17.90
2019,07,09,09,37,18.00
2019,07,09,09,38,18.00
2019,07,09,09,39,18.10
2019,07,09,09,40,18.20
2019,07,09,09,41,18.30
2019,07,09,09,42,18.40
2019,07,09,09,43,18.50
2019,07,09,09,44,18.60
2019,07,09,09,45,18.70
2019,07,09,09,46,18.70
2019,07,09,09,47,18.70
2019,07,09,09,48,18.70
2019,07,09,09,49,18.70
2019,07,09,09,50,18.70
2019,07,09,09,51,18.80
2019,07,09,09,52,18.90
2019,07,09,09,53,19.00
2019,07,09,09,54,19.10
2019,07,09,09,55,19.20
2019,07,09,09,56,19.30
2019,07,09,09,57,19.30
2019,07,09,09,58,19.40
2019,07,09,09,59,19.40
2019,07,09,10,00,19.50
2019,07,09,10,01,19.50
2019,07,09,10,02,19.60
2019,07,09,10,03,19.70
2019,07,09,10,04,19.80
2019,07,09,10,05,19.90
2019,07,09,10,06,20.10
2019,07,09,10,07,20.10
2019,07,09,10,08,20.20
2019,07,09,10,09,20.30
2019,07,09,10,10,20.30
2019,07,09,10,11,20.30
2019,07,09,10,12,20.30
2019,07,09,10,13,20.30
2019,07,09,10,14,20.30
2019,07,09,10,15,20.40
2019,07,09,10,16,20.50
2019,07,09,10,17,20.50
2019,07,09,10,18,20.50
2019,07,09,10,19,20.50
2019,07,09,10,20,20.60
2019,07,09,10,21,20.60
2019,07,09,10,22,20.70
2019,07,09,10,23,20.80
2019,07,09,10,24,20.90
2019,07,09,10,25,21.00
2019,07,09,10,26,21.10
2019,07,09,10,27,21.20
2019,07,09,10,28,21.20
2019,07,09,10,29,21.20
2019,07,09,10,30,21.20
2019,07,09,10,31,21.20
2019,07,09,10,32,21.20
2019,07,09,10,33,21.10
2019,07,09,10,34,20.90
2019,07,09,10,35,20.70
2019,07,09,10,36,20.50
2019,07,09,10,37,20.30
2019,07,09,10,38,20.10
2019,07,09,10,39,20.00
2019,07,09,10,40,19.80
2019,07,09,10,41,19.70
2019,07,09,10,42,19.50
2019,07,09,10,43,19.40
2019,07,09,10,44,19.40
2019,07,09,10,45,19.40
2019,07,09,10,46,19.30
2019,07,09,10,47,19.30
2019,07,09,10,48,19.30
2019,07,09,10,49,19.30
2019,07,09,10,50,19.20
2019,07,09,10,51,19.20
2019,07,09,10,52,19.10
2019,07,09,10,53,19.10
2019,07,09,10,54,19.00
2019,07,09,10,55,19.00
2019,07,09,10,56,19.10
2019,07,09,10,57,19.10
2019,07,09,10,58,19.10
2019,07,09,10,59,19.20
2019,07,09,11,00,19.20
2019,07,09,11,01,19.20
2019,07,09,11,02,19.30
2019,07,09,11,03,19.30
2019,07,09,11,04,19.30
2019,07,09,11,05,19.40
2019,07,09,11,06,19.40
2019,07,09,11,07,19.40
2019,07,09,11,08,19.40
2019,07,09,11,09,19.30
2019,07,09,11,10,19.30
2019,07,09,11,11,19.30
2019,07,09,11,12,19.30
2019,07,09,11,13,19.30
2019,07,09,11,14,19.30
2019,07,09,11,15,19.20
2019,07,09,11,16,19.20
2019,07,09,11,17,19.20
2019,07,09,11,18,19.20
2019,07,09,11,19,19.30
2019,07,09,11,20,19.30
2019,07,09,11,21,19.30
2019,07,09,11,22,19.30
2019,07,09,11,23,19.30
2019,07,09,11,24,19.30
2019,07,09,11,25,19.30
2019,07,09,11,26,19.30
2019,07,09,11,27,19.30
2019,07,09,11,28,19.30
2019,07,09,11,29,19.30
2019,07,09,11,30,19.30
2019,07,09,11,31,19.30
2019,07,09,11,32,19.30
2019,07,09,11,33,19.40
2019,07,09,11,34,19.40
2019,07,09,11,35,19.40
2019,07,09,11,36,19.50
2019,07,09,11,37,19.60
2019,07,09,11,38,19.60
2019,07,09,11,39,19.70
2019,07,09,11,40,19.70
2019,07,09,11,41,19.80
2019,07,09,11,42,19.80
2019,07,09,11,43,19.80
2019,07,09,11,44,19.80
2019,07,09,11,45,19.80
2019,07,09,11,46,19.70
2019,07,09,11,47,19.70
2019,07,09,11,48,19.60
2019,07,09,11,49,19.50
2019,07,09,11,50,19.40
2019,07,09,11,51,19.40
2019,07,09,11,52,19.30
2019,07,09,11,53,19.30
2019,07,09,11,54,19.30
2019,07,09,11,55,19.40
2019,07,09,11,56,19.40
2019,07,09,11,57,19.40
2019,07,09,11,58,19.40
2019,07,09,11,59,19.40
2019,07,09,12,00,19.50
2019,07,09,12,01,19.50
2019,07,09,12,02,19.50
2019,07,09,12,03,19.50
2019,07,09,12,04,19.60
2019,07,09,12,05,19.60
2019,07,09,12,06,19.60
2019,07,09,12,07,19.50
2019,07,09,12,08,19.50
2019,07,09,12,09,19.60
2019,07,09,12,10,19.50
2019,07,09,12,11,19.40
2019,07,09,12,12,19.50
2019,07,09,12,13,19.50
2019,07,09,12,14,19.50
2019,07,09,12,15,19.50
2019,07,09,12,16,19.50
2019,07,09,12,17,19.60
2019,07,09,12,18,19.60
2019,07,09,12,19,19.70
2019,07,09,12,20,19.70
2019,07,09,12,21,19.70
2019,07,09,12,22,19.70
2019,07,09,12,23,19.80
2019,07,09,12,24,19.80
2019,07,09,12,25,19.90
2019,07,09,12,26,20.00
2019,07,09,12,27,20.10
2019,07,09,12,28,20.20
2019,07,09,12,29,20.20
2019,07,09,12,30,20.20
2019,07,09,12,31,20.20
2019,07,09,12,32,20.30
2019,07,09,12,33,20.30
2019,07,09,12,34,20.30
2019,07,09,12,35,20.30
2019,07,09,12,36,20.20
2019,07,09,12,37,20.10
2019,07,09,12,38,20.10
2019,07,09,12,39,20.10
2019,07,09,12,40,20.10
2019,07,09,12,41,20.10
2019,07,09,12,42,20.20
2019,07,09,12,43,20.20
2019,07,09,12,44,20.20
2019,07,09,12,45,20.20
2019,07,09,12,46,20.10
2019,07,09,12,47,20.00
2019,07,09,12,48,20.00
2019,07,09,12,49,20.00
2019,07,09,12,50,20.00
2019,07,09,12,51,20.00
2019,07,09,12,52,20.10
2019,07,09,12,53,20.10
2019,07,09,12,54,20.20
2019,07,09,12,55,20.30
2019,07,09,12,56,20.30
2019,07,09,12,57,20.40
2019,07,09,12,58,20.50
2019,07,09,12,59,20.60
2019,07,09,13,00,20.60
2019,07,09,13,01,20.60
2019,07,09,13,02,20.60
2019,07,09,13,03,20.70
2019,07,09,13,04,20.70
2019,07,09,13,05,20.80
2019,07,09,13,06,20.80
2019,07,09,13,07,20.80
2019,07,09,13,08,20.80
2019,07,09,13,09,20.70
2019,07,09,13,10,20.70
2019,07,09,13,11,20.70
2019,07,09,13,12,20.70
2019,07,09,13,13,20.70
2019,07,09,13,14,20.70
2019,07,09,13,15,20.70
2019,07,09,13,16,20.60
2019,07,09,13,17,20.60
2019,07,09,13,18,20.60
2019,07,09,13,19,20.60
2019,07,09,13,20,20.60
2019,07,09,13,21,20.70
2019,07,09,13,22,20.70
2019,07,09,13,23,20.70
2019,07,09,13,24,20.70
2019,07,09,13,25,20.70
2019,07,09,13,26,20.70
2019,07,09,13,27,20.70
2019,07,09,13,28,20.70
2019,07,09,13,29,20.70
2019,07,09,13,30,20.70
2019,07,09,13,31,20.80
2019,07,09,13,32,20.80
2019,07,09,13,33,20.80
2019,07,09,13,34,20.80
2019,07,09,13,35,20.80
2019,07,09,13,36,20.80
2019,07,09,13,37,20.80
2019,07,09,13,38,20.80
2019,07,09,13,39,20.70
2019,07,09,13,40,20.70
2019,07,09,13,41,20.70
2019,07,09,13,42,20.70
2019,07,09,13,43,20.70
2019,07,09,13,44,20.70
2019,07,09,13,45,20.70
2019,07,09,13,46,20.70
2019,07,09,13,47,20.80
2019,07,09,13,48,20.80
2019,07,09,13,49,20.80
2019,07,09,13,50,20.90
2019,07,09,13,51,20.90
2019,07,09,13,52,20.90
2019,07,09,13,53,21.00
2019,07,09,13,54,20.90
2019,07,09,13,55,21.00
2019,07,09,13,56,21.00
2019,07,09,13,57,20.90
2019,07,09,13,58,20.80
2019,07,09,13,59,20.80
2019,07,09,14,00,20.70
2019,07,09,14,01,20.70
2019,07,09,14,02,20.70
2019,07,09,14,03,20.60
2019,07,09,14,04,20.60
2019,07,09,14,05,20.50
2019,07,09,14,06,20.50
2019,07,09,14,07,20.40
2019,07,09,14,08,20.40
2019,07,09,14,09,20.40
2019,07,09,14,10,20.40
2019,07,09,14,11,20.40
2019,07,09,14,12,20.40
2019,07,09,14,13,20.40
2019,07,09,14,14,20.30
2019,07,09,14,15,20.30
2019,07,09,14,16,20.30
2019,07,09,14,17,20.30
2019,07,09,14,18,20.30
2019,07,09,14,19,20.30
2019,07,09,14,20,20.30
2019,07,09,14,21,20.30
2019,07,09,14,22,20.30
2019,07,09,14,23,20.30
2019,07,09,14,24,20.20
2019,07,09,14,25,20.20
2019,07,09,14,26,20.20
2019,07,09,14,27,20.20
2019,07,09,14,28,20.20
2019,07,09,14,29,20.20
2019,07,09,14,30,20.20
2019,07,09,14,31,20.20
2019,07,09,14,32,20.30
2019,07,09,14,33,20.30
2019,07,09,14,34,20.30
2019,07,09,14,35,20.30
2019,07,09,14,36,20.30
2019,07,09,14,37,20.20
2019,07,09,14,38,20.20
2019,07,09,14,39,20.20
2019,07,09,14,40,20.20
2019,07,09,14,41,20.30
2019,07,09,14,42,20.30
2019,07,09,14,43,20.30
2019,07,09,14,44,20.40
2019,07,09,14,45,20.40
2019,07,09,14,46,20.40
2019,07,09,14,47,20.40
2019,07,09,14,48,20.40
2019,07,09,14,49,20.20
2019,07,09,14,50,20.00
2019,07,09,14,51,20.00
2019,07,09,14,52,19.90
2019,07,09,14,53,19.90
2019,07,09,14,54,19.90
2019,07,09,14,55,20.00
2019,07,09,14,56,20.00
2019,07,09,14,57,20.00
2019,07,09,14,58,20.00
2019,07,09,14,59,20.00
2019,07,09,15,00,20.00
2019,07,09,15,01,20.10
2019,07,09,15,02,20.10
2019,07,09,15,03,20.10
2019,07,09,15,04,20.20
2019,07,09,15,05,20.20
2019,07,09,15,06,20.20
2019,07,09,15,07,20.20
2019,07,09,15,08,20.20
2019,07,09,15,09,20.30
2019,07,09,15,10,20.30
2019,07,09,15,11,20.30
2019,07,09,15,12,20.30
2019,07,09,15,13,20.20
2019,07,09,15,14,20.10
2019,07,09,15,15,20.10
2019,07,09,15,16,20.10
2019,07,09,15,17,20.00
2019,07,09,15,18,20.00
2019,07,09,15,19,19.90
2019,07,09,15,20,19.80
2019,07,09,15,21,19.80
2019,07,09,15,22,19.70
2019,07,09,15,23,19.60
2019,07,09,15,24,19.60
2019,07,09,15,25,19.50
2019,07,09,15,26,19.40
2019,07,09,15,27,19.40
2019,07,09,15,28,19.40
2019,07,09,15,29,19.40
2019,07,09,15,30,19.40
2019,07,09,15,31,19.40
2019,07,09,15,32,19.40
2019,07,09,15,33,19.40
2019,07,09,15,34,19.40
2019,07,09,15,35,19.40
2019,07,09,15,36,19.40
2019,07,09,15,37,19.40
2019,07,09,15,38,19.40
2019,07,09,15,39,19.40
2019,07,09,15,40,19.40
2019,07,09,15,41,19.40
2019,07,09,15,42,19.40
2019,07,09,15,43,19.40
2019,07,09,15,44,19.40
2019,07,09,15,45,19.40
2019,07,09,15,46,19.30
2019,07,09,15,47,19.30
2019,07,09,15,48,19.30
2019,07,09,15,49,19.30
2019,07,09,15,50,19.30
2019,07,09,15,51,19.30
2019,07,09,15,52,19.30
2019,07,09,15,53,19.30
2019,07,09,15,54,19.30
2019,07,09,15,55,19.20
2019,07,09,15,56,19.20
2019,07,09,15,57,19.20
2019,07,09,15,58,19.10
2019,07,09,15,59,19.10
2019,07,09,16,00,19.00
2019,07,09,16,01,19.00
2019,07,09,16,02,18.90
2019,07,09,16,03,18.90
2019,07,09,16,04,18.80
2019,07,09,16,05,18.80
2019,07,09,16,06,18.80
2019,07,09,16,07,18.80
2019,07,09,16,08,18.70
2019,07,09,16,09,18.70
2019,07,09,16,10,18.70
2019,07,09,16,11,18.70
2019,07,09,16,12,18.70
2019,07,09,16,13,18.80
2019,07,09,16,14,18.80
2019,07,09,16,15,18.80
2019,07,09,16,16,18.80
2019,07,09,16,17,18.80
2019,07,09,16,18,18.90
2019,07,09,16,19,18.90
2019,07,09,16,20,18.90
2019,07,09,16,21,18.90
2019,07,09,16,22,18.90
2019,07,09,16,23,18.90
2019,07,09,16,24,18.80
2019,07,09,16,25,18.80
2019,07,09,16,26,18.70
2019,07,09,16,27,18.70
2019,07,09,16,28,18.70
2019,07,09,16,29,18.60
2019,07,09,16,30,18.60
2019,07,09,16,31,18.50
2019,07,09,16,32,18.50
2019,07,09,16,33,18.50
2019,07,09,16,34,18.40
2019,07,09,16,35,18.40
2019,07,09,16,36,18.40
2019,07,09,16,37,18.40
2019,07,09,16,38,18.40
2019,07,09,16,39,18.40
2019,07,09,16,40,18.40
2019,07,09,16,41,18.40
2019,07,09,16,42,18.40
2019,07,09,16,43,18.40
2019,07,09,16,44,18.40
2019,07,09,16,45,18.40
2019,07,09,16,46,18.40
2019,07,09,16,47,18.40
2019,07,09,16,48,18.30
2019,07,09,16,49,18.30
2019,07,09,16,50,18.30
2019,07,09,16,51,18.30
2019,07,09,16,52,18.30
2019,07,09,16,53,18.20
2019,07,09,16,54,18.20
2019,07,09,16,55,18.20
2019,07,09,16,56,18.10
2019,07,09,16,57,18.10
2019,07,09,16,58,18.00
2019,07,09,16,59,18.00
2019,07,09,17,00,17.90
2019,07,09,17,01,17.90
2019,07,09,17,02,17.90
2019,07,09,17,03,17.90
2019,07,09,17,04,17.80
2019,07,09,17,05,17.80
2019,07,09,17,06,17.80
2019,07,09,17,07,17.80
2019,07,09,17,08,17.80
2019,07,09,17,09,17.70
2019,07,09,17,10,17.70
2019,07,09,17,11,17.70
2019,07,09,17,12,17.60
2019,07,09,17,13,17.60
2019,07,09,17,14,17.60
2019,07,09,17,15,17.50
2019,07,09,17,16,17.50
2019,07,09,17,17,17.40
2019,07,09,17,18,17.40
2019,07,09,17,19,17.40